User: anonymous   Login
Location: Unspecified
(0.0000°N, 0.0000°E)
Time: 03:31:45
(UTC+00:00)
Language:

SWISSCUBE - Orbit

View from above orbital plane
View from above orbital plane
View from above satellite
View from above satellite

Ground track
Ground track

The orbit data is extracted from the following two-line orbital elements,

1 35932U 09051B   14297.31062850  .00001699  00000-0  40770-3 0  4435
2 35932 098.3902 049.9098 0007317 352.1834 007.9248 14.54697749269663
Epoch (UTC): 24 October 2014 07:27:18
Eccentricity: 0.0007317
inclination: 98.3902°
perigee height: 705 km
apogee height: 715 km
right ascension of ascending node: 49.9098°
argument of perigee: 352.1834°
revolutions per day: 14.54697749
mean anomaly at epoch: 7.9248°
orbit number at epoch: 26966

The dashed part of the orbit path shows where the satellite is in the earth's shadow,  

DLR